Regional Weather Roundup
Issued by NWS

Home | Current Version | Previous Version | Graphics & Text | Print | Product List | Glossary On
Versions: 1 2 3 4 5 6 7 8 9 10 11 12 13 14 15 16 17 18 19 20 21 22 23 24 25 26 27 28 29 30 31 32 33 34 35 36 37 38 39 40 41 42 43 44 45 46 47 48 49 50
000
ASUS43 KDTX 240810
RWRMI
MICHIGAN HOURLY REGIONAL WEATHER ROUNDUP
NATIONAL WEATHER SERVICE DETROIT/PONTIAC MI
300 AM EST FRI NOV 24 2017

NOTE: "FAIR" INDICATES FEW OR NO CLOUDS BELOW 12,000 FEET WITH NO
SIGNIFICANT WEATHER AND/OR OBSTRUCTION TO VISIBILITY.

MIZ047>049-052>055-059>063-066>070-074>076-081>083-240900-
SOUTHEAST LOWER MICHIGAN

CITY           SKY/WX    TMP DP  RH WIND       PRES   REMARKS
ADRIAN         CLEAR     28  23  81 SW3       29.92F
ALMA           CLEAR     32  27  83 S7        29.84F WCI  25
ANN ARBOR      CLEAR     26  22  84 S6        29.90F WCI  19
BAD AXE        CLEAR     32  24  72 S8        29.85F WCI  25
CARO           CLEAR     30  22  74 S5        29.85F WCI  25
DETROIT CITY   CLEAR     33  25  72 S5        29.92F WCI  29
DETROIT        PTCLDY    30  25  81 S7        29.92F WCI  23
FLINT          CLEAR     34  23  64 S7        29.88S WCI  28
GROSSE ILE     CLEAR     33  27  79 SW5       29.92F WCI  29
HILLSDALE      CLEAR     32  23  69 S6        29.88S WCI  26
HOWELL         CLEAR     32  24  73 S5        29.88R WCI  28

CITY           SKY/WX    TMP DP  RH WIND       PRES   REMARKS
JACKSON        CLEAR     34  22  61 S8        29.88F WCI  27
LAMBERTVILLE   CLEAR     32  26  77 S3        29.93F
LANSING        CLEAR     32  25  75 S9        29.87S WCI  24
LAPEER         FAIR      32  24  72 S5        29.88S WCI  27
MASON          CLEAR     34  25  69 CALM      29.88S
MONROE         CLEAR     32  26  78 S6        29.92F WCI  27
MT. CLEMENS    CLEAR     31  26  79 S7        29.90S WCI  25
PONTIAC        CLEAR     32  24  72 S3        29.88F
PORT HOPE        N/A     34  23  64 VRB5      29.81F WCI  30
PORT HURON     MOCLDY    36  23  60 S6        29.91F WCI  31
TRI CITIES     CLEAR     33  25  72 S9        29.84F WCI  25
MIDLAND        FAIR      32  25  76 S5        29.83F WCI  27
TROY           CLEAR     34  25  70 S3        29.92F
SAGINAW HB     CLEAR     32  27  80 S9        29.84F WCI  24
$$
MIZ043>046-050>051-056>058-064>065-071>073-077>080-240900-
SOUTHWEST LOWER MICHIGAN

CITY           SKY/WX    TMP DP  RH WIND       PRES   REMARKS
BATTLE CREEK   CLEAR     33  24  69 S12       29.87F WCI  24
BENTON HARBOR  CLEAR     34  25  69 S8        29.86F WCI  27
BIG RAPIDS     CLEAR     28  26  91 S5        29.77F WCI  23
COLDWATER      CLEAR     33  23  65 SW7       29.89S WCI  27
FREMONT        FAIR      32  29  90 S5        29.79F WCI  27
HOLLAND        CLEAR     34  27  75 S9        29.84F WCI  27
GRAND RAPIDS   CLEAR     33  27  78 S8        29.84F WCI  26
IONIA          FAIR      32  26  77 S8        29.84F WCI  25
KALAMAZOO      CLEAR     33  24  69 S7        29.87F WCI  27
LUDINGTON      CLEAR     41  32  69 SW10G17   29.76F
MARSHALL       CLEAR     33  23  67 SW6       29.87F WCI  27
MOUNT PLEASANT CLEAR     32  24  73 S5        29.81F WCI  27
MUSKEGON       CLEAR     42  32  67 S12       29.81F
SOUTH HAVEN    CLEAR     34  26  72 S6        29.85F WCI  29
$$
MIZ016>042-240900-
NORTHERN LOWER MICHIGAN

CITY           SKY/WX    TMP DP  RH WIND       PRES   REMARKS
ALPENA         CLOUDY    32  28  85 S7        29.78F WCI  26
BEAVER ISLAND  LGT RAIN  41  36  81 SW13G18   29.67F
BELLAIRE       CLOUDY    35  30  81 S6        29.74F WCI  30
CADILLAC       CLEAR     30  27  90 SW8       29.74S WCI  22
CHARLEVOIX     CLOUDY    37  29  75 S8        29.73F WCI  30
FRANKFORT      CLOUDY    41  32  69 S10       29.73S
GAYLORD        CLOUDY    32  25  75 S14       29.70F WCI  22
GRAYLING       CLOUDY    32  26  77 S6        29.75F WCI  26
HARBOR SPRINGS CLOUDY    36  28  73 SW9       29.71F WCI  29
HOUGHTON LAKE  CLEAR     30  25  81 S6        29.77F WCI  24
MANISTEE       MOCLDY    30  28  92 SE5       29.74F WCI  25
OSCODA         CLEAR     30  26  82 SW6       29.79S WCI  24
PELLSTON       CLOUDY    36  28  73 SE7       29.71F WCI  30
ROGERS CITY    CLOUDY    32  26  79 S6        29.76F WCI  26
TRAVERSE CITY  CLOUDY    36  28  73 VRB3      29.72F
$$
MIZ007>008-015-240900-
EASTERN UPPER MICHIGAN

CITY           SKY/WX    TMP DP  RH WIND       PRES   REMARKS
KINROSS        LGT RAIN  35  29  78 S9        29.67F WCI  28
MACKINAC ISLAN MIX PCPN  37  28  72 S12G20    29.69F WCI  29
NEWBERRY       CLOUDY    37  34  87 S14       29.62F WCI  29
S. S. MARIE    LGT RAIN  35  29  78 SE9       29.66F WCI  28
MUNISING         N/A     39  30  70 S10G20    29.54F WCI  32
$$
MIZ004>006-011>014-085-240900-
CENTRAL UPPER MICHIGAN

CITY           SKY/WX    TMP DP  RH WIND       PRES   REMARKS
MANISTIQUE     CLOUDY    40  28  62 S15G24    29.63F WCI  32
ESCANABA       CLOUDY    39  32  76 SW14      29.62F WCI  31
MENOMINEE      CLOUDY    38  27  64 SW10      29.65F WCI  31
SAWYER-GWINN   CLOUDY    33  26  75 S16       29.53F WCI  23
$$
MIZ001>003-009>011-084-240900-
WESTERN UPPER MICHIGAN

CITY           SKY/WX    TMP DP  RH WIND       PRES   REMARKS
IRON MOUNTAIN  CLOUDY    35  23  61 S8        29.55F WCI  29
HOUGHTON       LGT RAIN  36  27  69 S7        29.39F WCI  30
COPPER HARBOR    N/A     40  30  67 SW14G28   29.38F WCI  32
IRONWOOD       CLOUDY    42  30  62 SW14G24   29.41F
$$

ABBREVIATIONS USED IN REMARKS
   TC - TEMPERATURE IN CELSIUS
  WCI - WIND CHILL INDEX
   HX - HEAT INDEX
  VSB - VISIBILITY





USA.gov is the U.S. government's official web portal to all federal, state and local government web resources and services.